Station ROAM4 - Rock of Ages, MI Image indicating link to RSS feed of recent meteorological observations for station ROAM4


Conditions at ROAM4 as of
(6:00 am EDT)
1000 GMT on 07/21/2024:
     

Click on the graph icon in the table below to see a time series plot of the last five days of that observation.

5-day plot - Wind Direction Wind Direction (WDIR):NNE ( 20 deg true )
5-day plot - Wind Speed Wind Speed (WSPD): 6 kts
5-day plot - Wind Gust Wind Gust (GST): 6 kts
5-day plot - Atmospheric Pressure Atmospheric Pressure (PRES):30.22 in
5-day plot - Pressure Tendency Pressure Tendency (PTDY):+0.01 in ( Rising )
5-day plot - Air Temperature Air Temperature (ATMP): 60.8 °F
5-day plot - Wind Speed at 10 Meters Wind Speed at 10 meters (WSPD10M): 6 kts
5-day plot - Wind Speed at 20 Meters Wind Speed at 20 meters (WSPD20M): 6 kts
5-day plot -  Wind Speed, Wind Gust and Atmospheric Pressure Combined plot of Wind Speed, Gust, and Air Pressure
Continuous Winds
TIME
(EDT)
5-day plot - Wind Direction WDIR 5-day plot - Wind Speed WSPD
6:00 amNNE ( 19 deg ) 5 kts
5:50 amNNE ( 17 deg ) 5 kts
5:40 amNNE ( 17 deg ) 6 kts
5:30 amN ( 9 deg ) 6 kts
5:20 amN ( 5 deg ) 7 kts
5:10 amN ( 4 deg ) 7 kts
 
Peak gust during the measurement hour
TIME
(EDT)
5-day plot - Gust Direction GDR 5-day plot - Gust Speed GST
5:09 amN ( 360 deg ) 8 kts
Previous observations
TIME
(EDT)
5-day plot - Wind Direction
WDIR
 
5-day plot - Wind Speed
WSPD
kts
5-day plot - Wind Gust
GST
kts
5-day plot - Wave Height
WVHT
ft
5-day plot - Dominant Wave Period
DPD
sec
5-day plot - Average Wave Period
APD
sec
5-day plot - Mean Wave Direction
MWD
 
5-day plot - Atmospheric Pressure
PRES
in
5-day plot - Pressure Tendency
PTDY
in
5-day plot - Air Temperature
ATMP
°F
5-day plot - Water Temperature
WTMP
°F
5-day plot - Dew Point
DEWP
°F
5-day plot - Salinity
SAL
psu
5-day plot - Visibility
VIS
nmi
5-day plot - Tide (above MLLW)
TIDE
ft
2024-07-21 05:00 am N 6 7----30.22+0.01 60.4-----
2024-07-21 04:00 am N 8 9----30.21+0.00 62.2-----
2024-07-21 03:00 am N 6 6----30.21+0.00 61.3-----
2024-07-21 02:00 am N 8 9----30.21+0.00 63.5-----
2024-07-21 01:00 am N 6 7----30.20+0.01 64.2-----
2024-07-21 12:00 am N 3 3----30.21+0.04 63.3-----
2024-07-20 11:00 pm N 4 4----30.21+0.05 64.2-----
2024-07-20 10:00 pmENE 5 5----30.19+0.04 65.1-----
2024-07-20 09:00 pm SE 12 12----30.17+0.03 65.3-----
2024-07-20 08:00 pm SE 11 11----30.16+0.01 62.2-----
2024-07-20 07:00 pm SE 12 12----30.15+0.00 61.7-----
2024-07-20 06:00 pm SE 11 13----30.14+0.00 61.0-----
2024-07-20 05:00 pmESE 9 10----30.14-0.01 64.0-----
2024-07-20 04:00 pmNNE 5 6----30.15+0.01 65.1-----
2024-07-20 03:00 pm E 14 15----30.14+0.03 68.4-----
2024-07-20 02:00 pmENE 10 11----30.15+0.05 67.3-----
2024-07-20 01:00 pm NE 15 16----30.14+0.06 64.6-----
2024-07-20 12:00 pmNNE 16 17----30.12+0.05 64.2-----
2024-07-20 11:00 amNNE 18 19----30.10+0.06 66.4-----
2024-07-20 10:00 amNNE 7 7----30.08+0.05 66.4-----
2024-07-20 09:00 amNNW 8 8----30.06+0.05 67.6-----
2024-07-20 08:00 am W 9 9----30.05+0.04 68.2-----
2024-07-20 07:00 amWNW 10 11----30.03+0.02 68.2-----
2024-07-20 06:00 amWNW 12 13----30.01+0.00 70.7-----